Location: Hall+in+Tirol
(47.2830°N, 11.5170°E)
Time: 12:28:57
(UTC+02:00)

Daily predictions for brighter satellites

Satellite Brightness Start Highest point End
(mag) Time Altitude Azimuth Time Altitude Azimuth Time Altitude Azimuth
Helios 1B rocket 2.9 21:48:15 10° N 21:52:24 69° WNW 21:56:31 10° SSW
Meteor 1-21 Rocket 4.2 21:47:12 10° S 21:52:50 80° E 21:58:26 10° NNE
SPOT 1/Viking Rocket 4.2 21:51:17 10° SE 21:56:07 43° ENE 22:00:58 10° N
MetOp-A 4.2 21:55:46 10° SSE 22:01:07 85° ENE 22:06:32 10° NNW
Okean 3 Rocket 4.4 21:57:00 10° SSW 22:01:24 54° WNW 22:05:47 10° N
Cosmos 1603 3.9 21:55:59 10° NNW 22:01:40 76° WSW 22:07:15 10° SSE
Cosmos 1300 2.9 21:58:15 10° N 22:02:02 55° ENE 22:05:48 10° SSE
Cosmos 468 Rocket 4.1 21:58:57 10° NNW 22:04:05 74° WSW 22:09:11 10° SSE
Cosmos 2084 4.2 22:00:43 10° WSW 22:04:34 52° NW 22:08:18 10° NNE
ARGOS 3.2 22:01:31 10° SSE 22:06:55 76° ENE 22:12:20 10° NNW
Cosmos 1328 Rocket 3.6 22:02:49 10° N 22:07:08 62° ENE 22:11:25 10° SSE
Cosmos 1766 Rocket 3.5 22:03:09 10° S 22:07:28 88° ESE 22:11:52 10° N
Cosmos 1151 Rocket 3.8 22:03:57 10° N 22:08:03 37° ENE 22:12:04 10° SE
ERS-1 Rocket 3.3 22:03:36 10° S 22:08:37 68° WSW 22:13:39 10° NNW
Meteor 2-2 Rocket 4.4 22:04:07 10° N 22:09:56 80° ENE 22:15:50 10° SSE
Tiangong 1 1.9 22:09:23 10° WSW 22:11:51 27° S 22:13:57 12° SE
Cosmos 1867 4.1 22:08:24 10° SW 22:13:49 65° NW 22:19:16 10° NNE
Cosmos 1943 3.3 22:09:15 10° NNW 22:14:56 74° ENE 22:20:24 11° SSE
Cosmos 1515 Rocket 3.8 22:10:56 10° N 22:15:13 55° ENE 22:19:22 10° SSE
SL-16 R/B 4.3 22:13:23 10° NW 22:17:36 22° W 22:21:48 10° SSW
Abrixas 3.6 22:17:06 10° SSW 22:19:09 19° SSE 22:21:13 10° E
SL-14 R/B 3.3 22:15:34 10° S 22:19:28 62° E 22:23:21 10° NNE
CZ-3B R/B 4.5 22:16:02 10° SW 22:19:33 68° SE 22:33:04 10° ENE
H-2A R/B 3.4 22:19:05 10° ESE 22:22:34 25° ENE 22:26:02 10° N
USA 245 3.5 22:19:20 10° SSE 22:23:00 84° WSW 22:27:41 10° NNW
Cosmos 1743 Rocket 3.6 22:19:02 10° S 22:23:17 60° E 22:27:33 10° NNE
Cosmos 540 Rocket 4.3 22:19:57 10° N 22:24:48 39° ENE 22:29:11 12° SE
RESURS DK-1 3.6 22:22:46 10° NW 22:26:37 36° WSW 22:30:25 10° S
Cosmos 371 Rocket 3.6 22:23:08 10° NNW 22:27:55 65° WSW 22:32:41 10° S
Cosmos 2058 3.6 22:26:00 12° SSE 22:29:34 38° E 22:33:29 10° NNE
YAOGAN 11 4.4 22:25:54 10° S 22:30:24 72° WSW 22:35:00 10° NNW
Cosmos 1328 3.8 22:28:25 10° S 22:32:26 85° ESE 22:36:31 10° N
Cosmos 2228 Rocket 3.3 22:27:59 10° NNW 22:32:37 79° W 22:37:10 10° S
Cosmos 1455 3.3 22:31:20 10° N 22:34:49 30° ENE 22:37:22 15° SE
Cosmos 2123 Rocket 4.0 22:30:02 10° S 22:36:13 89° W 22:42:29 10° N
Cosmos 220 Rocket 4.1 22:34:29 10° SSW 22:38:54 86° WNW 22:43:17 10° NNE
H-2A R/B 2.2 22:34:52 11° SSE 22:40:01 87° WSW 22:45:31 10° NNW
Lacrosse 5 3.5 22:46:32 10° WNW 22:50:31 24° SW 22:54:18 11° S
SPOT 5 3.7 22:47:33 10° S 22:52:19 49° W 22:57:20 10° NNW
Cosmos 2285 Rocket 4.1 22:46:53 10° NNW 22:53:16 75° ENE 22:58:17 17° SSE
Cosmos 1869 4.4 22:57:36 10° N 23:01:10 31° ENE 23:03:14 19° ESE
Sich 1 4.3 23:01:00 18° SE 23:02:53 25° E 23:06:22 10° NNE
Landsat 7 4.0 22:59:35 16° S 23:03:23 73° WSW 23:08:10 10° NNW
Cosmos 2151 3.1 23:01:36 11° SSW 23:05:45 78° W 23:10:05 10° N
Meteor 1-11 4.4 23:00:42 10° SSW 23:06:32 83° WNW 23:12:23 10° N
Cosmos 1354 Rocket 4.0 23:04:17 10° S 23:09:24 69° ESE 23:14:38 10° NNE
USA 234 3.2 23:03:12 10° ENE 23:09:43 62° SE 23:16:10 10° SW
Cosmos 841 Rocket 4.3 23:07:16 10° NNW 23:12:15 44° WSW 23:16:18 15° S
Cosmos 2263 Rocket 2.2 23:09:15 10° SSW 23:14:49 86° WNW 23:20:28 10° NNE
Cosmos 1707 Rocket 3.9 23:12:50 10° N 23:17:15 55° ENE 23:19:43 25° SSE
deb Chang Zheng 4 3.8 23:13:14 10° NNE 23:17:31 52° E 23:19:59 24° SSE
Terra 1.9 23:15:01 20° S 23:18:18 74° WSW 23:23:06 10° NNW
SME Rocket 3.8 23:16:33 22° SE 23:18:54 48° ENE 23:23:52 10° N
Abrixas rocket 4.4 23:17:34 10° WSW 23:19:09 13° SW 23:19:26 13° SSW
CZ-4C R/B 4.2 23:17:08 22° SE 23:19:33 44° ENE 23:23:48 10° N
Cosmos 1703 3.5 23:17:43 16° SSW 23:20:51 72° W 23:24:51 10° N
Cosmos 1464 Rocket 4.1 23:15:12 10° N 23:21:22 68° E 23:25:31 22° SSE
Cosmos 1626 2.5 23:19:33 16° SSW 23:22:26 63° WNW 23:26:09 10° N
DMSP B5D2-2 4.2 23:18:28 10° N 23:23:43 75° WNW 23:28:50 10° SSW
Cosmos 304 Rocket 4.1 23:20:14 10° NNW 23:24:57 57° WSW 23:27:54 22° S
CZ-4 R/B 3.9 23:23:20 10° NNE 23:28:10 61° ESE 23:30:59 24° S
COSMOS 2406 3.6 23:24:47 10° NNW 23:30:24 58° ENE 23:34:05 21° SE
Cosmos 783 Rocket 4.5 23:28:07 10° NNW 23:33:28 87° ENE 23:36:32 26° SSE
CZ-4C R/B 2.6 23:30:57 23° S 23:33:45 40° ESE 23:39:17 10° NE
DELTA 2 DEB (DPAF) 4.2 23:32:27 27° SSE 23:34:47 70° ENE 23:39:15 10° N
Cosmos 1666 Rocket 3.8 23:33:49 28° SSE 23:35:57 56° E 23:40:19 10° NNE
CARTOSAT-1 4.4 23:34:51 20° SSW 23:37:33 44° W 23:41:42 10° NNW
IGS 5A 4.3 23:36:57 21° SSW 23:39:25 43° W 23:43:26 10° NNW
Cosmos 1805 Rocket 3.6 23:44:11 24° SSW 23:46:46 77° W 23:51:07 10° N
Cosmos 2084 Rocket 3.1 23:43:05 10° NW 23:46:55 81° SW 23:48:19 37° SSE
Cosmos 1844 Rocket 3.1 23:45:15 27° SSE 23:47:41 42° ESE 23:52:55 10° NE
SL-24 R/B - RUBIN 2 4.0 23:43:39 10° NW 23:49:20 85° NE 23:52:03 28° SE
Cosmos 1633 Rocket 3.1 23:48:41 32° SSE 23:50:32 65° E 23:54:53 10° NNE
Abrixas 2.0 23:50:56 10° WSW 23:53:37 83° S 23:53:37 83° S
PSLV R/B 4.1 23:54:08 30° SW 23:54:44 34° W 23:57:24 10° NNW
Spot 4 4.1 23:52:30 27° S 23:55:06 64° W 23:59:57 10° NNW
